TimeEST,TemperatureF,Dew PointF,Humidity,Sea Level PressureIn,VisibilityMPH,Wind Direction,Wind SpeedMPH,Gust SpeedMPH,PrecipitationIn,Events,Conditions,WindDirDegrees,DateUTC
12:16 AM,78.8,73.4,83,29.97,10.0,South,6.9,-,N/A,,Mostly Cloudy,170,2012-12-11 05:16:00
12:53 AM,78.1,73.0,84,29.96,10.0,South,6.9,-,N/A,,Mostly Cloudy,170,2012-12-11 05:53:00
1:46 AM,78.8,73.4,83,29.95,10.0,South,8.1,-,N/A,,Scattered Clouds,170,2012-12-11 06:46:00
1:53 AM,77.0,73.0,88,29.94,10.0,SSE,10.4,-,N/A,,Scattered Clouds,160,2012-12-11 06:53:00
2:53 AM,77.0,73.0,88,29.95,10.0,South,6.9,-,N/A,,Mostly Cloudy,190,2012-12-11 07:53:00
3:16 AM,77.0,73.4,89,29.94,10.0,South,6.9,-,0.00,Rain-Thunderstorm,Light Thunderstorms and Rain,180,2012-12-11 08:16:00
3:37 AM,73.4,69.8,88,29.97,0.2,West,15.0,34.5,0.13,Fog-Rain-Thunderstorm,Heavy Thunderstorms and Rain,260,2012-12-11 08:37:00
3:40 AM,71.6,69.8,94,29.97,1.0,WSW,9.2,34.5,0.15,Rain-Thunderstorm,Heavy Thunderstorms and Rain,240,2012-12-11 08:40:00
3:43 AM,71.6,69.8,94,29.97,3.0,WSW,6.9,28.8,0.18,Rain-Thunderstorm,Thunderstorms and Rain,240,2012-12-11 08:43:00
3:53 AM,72.0,70.0,93,29.97,1.8,WSW,8.1,-,0.25,Rain-Thunderstorm,Heavy Thunderstorms and Rain,250,2012-12-11 08:53:00
3:55 AM,71.6,69.8,94,29.97,4.0,WSW,8.1,-,0.00,Rain-Thunderstorm,Thunderstorms and Rain,250,2012-12-11 08:55:00
4:12 AM,71.6,69.8,94,29.96,6.0,West,8.1,-,0.05,Rain,Rain,260,2012-12-11 09:12:00
4:53 AM,71.1,69.1,93,29.94,10.0,Calm,Calm,-,0.11,,Partly Cloudy,0,2012-12-11 09:53:00
5:53 AM,71.1,69.1,93,29.97,10.0,South,3.5,-,N/A,,Partly Cloudy,170,2012-12-11 10:53:00
6:53 AM,72.0,70.0,93,29.96,10.0,South,3.5,-,N/A,,Partly Cloudy,190,2012-12-11 11:53:00
7:53 AM,73.9,72.0,93,29.99,10.0,SW,4.6,-,N/A,,Partly Cloudy,230,2012-12-11 12:53:00
8:53 AM,77.0,73.9,90,30.00,10.0,SSW,3.5,-,N/A,,Partly Cloudy,200,2012-12-11 13:53:00
9:03 AM,78.8,75.2,89,30.00,10.0,South,6.9,-,N/A,,Partly Cloudy,190,2012-12-11 14:03:00
9:53 AM,80.1,73.9,81,30.01,10.0,South,8.1,-,N/A,,Scattered Clouds,190,2012-12-11 14:53:00
10:53 AM,84.0,75.0,74,30.02,10.0,SSW,11.5,-,N/A,,Scattered Clouds,210,2012-12-11 15:53:00
11:53 AM,84.9,75.0,72,30.01,10.0,South,8.1,-,N/A,,Mostly Cloudy,180,2012-12-11 16:53:00
12:53 PM,84.0,73.9,72,29.97,10.0,South,8.1,-,N/A,,Mostly Cloudy,180,2012-12-11 17:53:00
1:53 PM,82.0,75.0,79,29.95,10.0,South,10.4,-,N/A,,Scattered Clouds,170,2012-12-11 18:53:00
2:53 PM,82.0,73.9,76,29.95,10.0,SSE,12.7,-,N/A,,Partly Cloudy,150,2012-12-11 19:53:00
3:53 PM,82.0,73.9,76,29.95,10.0,South,11.5,-,N/A,,Scattered Clouds,170,2012-12-11 20:53:00
4:53 PM,80.1,73.9,81,29.95,10.0,SSE,10.4,-,N/A,,Partly Cloudy,150,2012-12-11 21:53:00
5:53 PM,79.0,73.9,84,29.96,10.0,South,6.9,-,N/A,,Scattered Clouds,170,2012-12-11 22:53:00
6:50 PM,78.8,75.2,89,29.97,10.0,South,8.1,-,N/A,,Mostly Cloudy,170,2012-12-11 23:50:00
6:53 PM,79.0,75.0,88,29.97,10.0,South,8.1,-,N/A,,Mostly Cloudy,170,2012-12-11 23:53:00
7:18 PM,78.8,73.4,83,29.98,10.0,South,6.9,-,N/A,,Overcast,170,2012-12-12 00:18:00
7:47 PM,78.8,73.4,83,29.99,10.0,South,6.9,-,N/A,,Scattered Clouds,180,2012-12-12 00:47:00
7:53 PM,78.8,73.4,83,29.99,10.0,South,6.9,-,N/A,,Partly Cloudy,170,2012-12-12 00:53:00
8:53 PM,78.8,73.4,83,30.02,10.0,South,3.5,-,N/A,,Scattered Clouds,170,2012-12-12 01:53:00
9:53 PM,78.1,73.9,87,30.05,10.0,SSW,3.5,-,N/A,,Mostly Cloudy,210,2012-12-12 02:53:00
10:04 PM,78.8,73.4,83,30.05,10.0,SW,3.5,-,N/A,,Mostly Cloudy,230,2012-12-12 03:04:00
10:24 PM,77.0,73.4,89,30.05,10.0,Calm,Calm,-,N/A,,Scattered Clouds,0,2012-12-12 03:24:00
10:53 PM,77.0,73.9,90,30.05,10.0,Calm,Calm,-,N/A,,Scattered Clouds,0,2012-12-12 03:53:00
11:05 PM,77.0,73.4,89,30.06,10.0,SE,4.6,-,N/A,,Mostly Cloudy,140,2012-12-12 04:05:00
11:34 PM,77.0,73.4,89,30.06,10.0,South,4.6,-,N/A,,Mostly Cloudy,170,2012-12-12 04:34:00
11:47 PM,77.0,73.4,89,30.05,10.0,South,4.6,-,N/A,,Scattered Clouds,170,2012-12-12 04:47:00
11:53 PM,77.0,73.0,88,30.06,10.0,South,5.8,-,N/A,,Scattered Clouds,170,2012-12-12 04:53:00